User: anonymous   Login
Location: Val de Santo Domingo
(40.0124°N, 4.3273°W)
Time: 19:45:19
(UTC+00:00)
Language:

Meteor 2-20 Rocket - Orbit

View from above orbital plane
View from above orbital plane
View from above satellite
View from above satellite

Ground track
Ground track

The orbit is defined by the following mean orbital elements,

1 20827U          26129.33947963 +.00000000 +00000-0 +19081-4 0 00009
2 20827  82.5299 233.3724 0104745  83.0094 278.2966 13.84648822    01
Epoch (UTC): 09 May 2026 08:08:51
Eccentricity: 0.0104745
inclination: 82.5299°
perigee height: 871 km
apogee height: 1024 km
right ascension of ascending node: 233.3724°
argument of perigee: 83.0094°
revolutions per day: 13.84648822
mean anomaly at epoch: 278.2966°

The dashed part of the orbit path shows where the satellite is in the earth's shadow,  

DLR